Location: Domachevo
(51.7500°N, 23.6000°E)
Time: 03:38:11
(UTC+02:00)

GENESIS II - Visible Passes

Search period start: 24 November 2017 00:00
Search period end: 04 December 2017 00:00
Orbit: 508 x 526 km, 64.5° (Epoch: 22 November)

Date Brightness Start Highest point End Pass type
(mag) Time Alt. Az. Time Alt. Az. Time Alt. Az.
24 Nov 6.1 17:06:34 10° NW 17:10:12 35° WSW 17:13:46 10° S visible
30 Nov 4.8 07:21:25 10° SSW 07:25:21 65° SE 07:29:18 10° NE visible
01 Dec 4.7 07:06:00 10° SSW 07:09:56 67° SE 07:13:53 10° NE visible
02 Dec 7.8 05:17:23 10° ESE 05:17:34 10° ESE 05:17:45 10° ESE visible
02 Dec 4.6 06:50:35 10° SSW 06:54:31 69° SE 06:58:29 10° NE visible
03 Dec 7.6 05:01:28 10° ESE 05:02:09 10° ESE 05:02:49 10° E visible
03 Dec 4.5 06:35:10 10° SSW 06:39:06 71° SE 06:43:04 10° NE visible
